Regional Weather Roundup
Issued by NWS

Home | Current Version | Previous Version | Text Only | Print | Product List | Glossary Off
Versions: 1 2 3 4 5 6 7 8 9 10 11 12 13 14 15 16 17 18 19 20 21 22 23 24 25 26 27 28 29 30 31 32 33 34 35 36 37 38 39 40 41 42 43 44 45 46 47 48 49 50

183
ASUS45 KCYS 172110
RWRWY

WYOMING REGIONAL WEATHER ROUNDUP
NATIONAL WEATHER SERVICE CHEYENNE WY
300 PM MDT TUE OCT 17 2017

NOTE:  "FAIR" INDICATES FEW OR NO CLOUDS BELOW 12,000 FEET
WITH NO SIGNIFICANT WEATHER AND/OR OBSTRUCTIONS TO VISIBILITY.

WYZ001-172200-
YELLOWSTONE NATIONAL PARK

CITY           SKY/WX    TMP DP  RH WIND       PRES   REMARKS
LK YELLOWSTONE NOT AVBL
W YELLOWSTONE  NOT AVBL

$$
WYZ002>013-054>058-071-098>099-172200-
NORTHERN WYOMING

CITY           SKY/WX    TMP DP  RH WIND       PRES   REMARKS
JACKSON        FAIR      62  23  22 VRB7      30.18F
CODY           FAIR      72  15  11 W17G23    29.99F
GREYBULL       FAIR      70  26  19 SE7       29.96F
WORLAND        FAIR      71  25  17 SE5       29.96F
SHERIDAN       FAIR      79  16   9 VRB5      29.89F
BUFFALO        FAIR      74   8   8 SE7       29.96F
GILLETTE       FAIR      73  11   9 W8        29.94F
HULETT         FAIR      70  27  19 SW10G20   29.95F
NEWCASTLE      FAIR      68  19  15 CALM      29.98F

$$
WYZ014>020-022>026-101>103-172200-
CENTRAL WYOMING

CITY           SKY/WX    TMP DP  RH WIND       PRES   REMARKS
BIG PINEY      FAIR      62  11  13 S6        30.23F
PINEDALE       FAIR      59  14  17 SW3       30.25F
DUBOIS         FAIR      61  10  13 NW31G39   30.14S
LANDER         FAIR      64  27  24 SE7       30.06F
RIVERTON       FAIR      66  20  17 VRB6      30.07F
CASPER         FAIR      72  11   9 W20G30    30.05F
DOUGLAS        FAIR      74  11   9 W23G30    30.03F

$$
WYZ021-027>030-104>119-172200-
SOUTHERN WYOMING

CITY           SKY/WX    TMP DP  RH WIND       PRES   REMARKS
EVANSTON       FAIR      67   2   7 W20G28    30.26F
KEMMERER       FAIR      63   5  10 W16G23    30.26F
FORT BRIDGER   FAIR      71   3   7 W18G25    30.28F
ROCK SPRINGS   FAIR      65  -1   7 W15G21    30.23F
DIXON          FAIR      67   9  10 S15G21    30.27F
RAWLINS        FAIR      66   8  10 SW18G29   30.20F
SARATOGA       FAIR      64  10  12 W17       30.24F
LARAMIE        FAIR      67   8  10 W17G26    30.20F
CHEYENNE       FAIR      72  10   9 W18G24    30.14F
TORRINGTON     FAIR      77   6   6 W10G22    30.00F
PINE BLUFFS    FAIR      77  12   8 SW14G21   30.08F

$$




USA.gov is the U.S. government's official web portal to all federal, state and local government web resources and services.